COSMOS 1134

Satellite information

Favourite Embed

Satellite Type and Status

PAYLOADIN ORBIT

Key statistics

Satellite COSMOS 1134 at a glance.

Uptime

16836

Days in orbit

Revolutions

≈ 12.5

Per day

Orbit

LEO

Low Earth Orbit

Inclination

74.0

Latest

Satellite identification and parameters

Extended collection of information and parameters for COSMOS 1134.

Object identification

Identified? True

Debris? False

Object name: COSMOS 1134

International designator: 1979-084E

Object number (NORAD): 11542

Object ID (CCSDS): 11542

Country: COMMONWEALTH OF INDEPENDENT STATES (CIS)

Current information (Y/N): Y

RCS size: MEDIUM

Orbital parameters

Period: 115.285 minutes

Inclination: 74.024 deg

SMA: 7846.503 km

Apoapsis: 1482.543 km

Periapsis: 1454.193 km

RAAN: 314.0325 deg

Eccentricy: 0.00180654

Argument of periapsis: 94.5722 deg

Mean anomaly: 16.2788 deg

Mean motion: 12.49075018 rev/day

Mean motion (dot): -0.00000003 rev/day2

B* drag term: 0.000081490259 1/REarth

Two-line elements (TLE)

Creation date: Oct. 28, 2025, 2:18 a.m.

Reference frame: TEME

Reference center: EARTH

Epoch: Oct. 27, 2025, 7:12 p.m. UTC

TLE line 0: 0 COSMOS 1134

TLE line 1: 1 11542U 79084E 25300.80036316 -.00000003 00000-0 81490-4 0 9998

TLE line 2: 2 11542 74.0240 314.0325 0018065 94.5722 16.2788 12.49075018101594

Live tracking on map

Real-time ground track for satellite COSMOS 1134.

In-orbit conjunctions

There are no conjunctions computed for COSMOS 1134, at the moment. Check back to stay up to date, as we update our databases every day.

Go to all conjunctions

Associated space launch

Biological research satellite carrying live organisms

COSMOS 1134 was lifted into orbit during the mission ‘Soyuz U | Bion 5’, on board a Soyuz U space rocket.

The launch took place on Sept. 25, 1979, 3:30 p.m. from 41/1.

For more information about the launch, click the button.

Launch to space Soyuz U | Bion 5
Soyuz U | Bion 5

Agency: N/A

Status: Launch Successful

Launch date: Sept. 25, 1979, 3:30 p.m. UTC

Rocket: Soyuz U

Launch pad: 41/1

Location: Plesetsk Cosmodrome, Russian Federation

...

Latest news about this satellite

There are no fresh news available about this satellite. Check back as we update our databases every day.


Newsletter sign-up

Weekly statistics, charts and insights to help you stay on top of the space industry.